Estación de Tamelaike INIA
Ultimos registro cada 15 minutos 51
| N° | Estación | Fecha / Hora | Temperatura | Humedad | Lluvia | Velocidad | Dirección | Radiación | Presion |
| 51 | Tamelaike INIA | 02-05-2026 12:30 | 5,3 | 65,1 | 0 | 2,6 | 283 | 431 | 1006 |
| 50 | Tamelaike INIA | 02-05-2026 12:15 | 5,4 | 70,4 | 0 | 2,5 | 288 | 468 | 1008 |
| 49 | Tamelaike INIA | 02-05-2026 12:00 | 5,1 | 67,6 | 0 | 2,1 | 298 | 460 | 1007 |
| 48 | Tamelaike INIA | 02-05-2026 11:45 | 4,8 | 71,3 | 0 | 1,4 | 301 | 435 | 1007 |
| 47 | Tamelaike INIA | 02-05-2026 11:30 | 4,6 | 69,7 | 0 | 0,3 | 279 | 444 | 1007 |
| 46 | Tamelaike INIA | 02-05-2026 11:15 | 4,2 | 75,3 | 0 | 0,9 | 288 | 361 | 1008 |
| 45 | Tamelaike INIA | 02-05-2026 11:00 | 4,2 | 73,2 | 0 | 0,8 | 321 | 381 | 1009 |
| 44 | Tamelaike INIA | 02-05-2026 10:45 | 4,2 | 74,7 | 0 | 0,5 | 308 | 368 | 1008 |
| 43 | Tamelaike INIA | 02-05-2026 10:30 | 4 | 75,5 | 0 | 0 | 287 | 318 | 1008 |
| 42 | Tamelaike INIA | 02-05-2026 10:15 | 3,2 | 79,6 | 0 | 0,3 | 286 | 300 | 1010 |
| 41 | Tamelaike INIA | 02-05-2026 10:00 | 2,8 | 81,8 | 0 | 2,1 | 272 | 233 | 1009 |
| 40 | Tamelaike INIA | 02-05-2026 09:45 | 2,7 | 81,3 | 0 | 0,7 | 260 | 201 | 1009 |
| 39 | Tamelaike INIA | 02-05-2026 09:30 | 2,2 | 83,3 | 0 | 0 | 0 | 160 | 1009 |
| 38 | Tamelaike INIA | 02-05-2026 09:15 | 1,6 | 85,8 | 0 | 0 | 0 | 152 | 1009 |
| 37 | Tamelaike INIA | 02-05-2026 09:00 | 1,4 | 86 | 0 | 0 | 0 | 125 | 1009 |
| 36 | Tamelaike INIA | 02-05-2026 08:45 | 1,3 | 83,9 | 0 | 0 | 0 | 93 | 1009 |
| 35 | Tamelaike INIA | 02-05-2026 08:30 | 0,5 | 85,9 | 0 | 0 | 0 | 58 | 1009 |
| 34 | Tamelaike INIA | 02-05-2026 08:15 | -0,3 | 89,8 | 0 | 0,2 | 166 | 27 | 1009 |
| 33 | Tamelaike INIA | 02-05-2026 08:00 | 0 | 89,5 | 0 | 1,1 | 222 | 10 | 1010 |
| 32 | Tamelaike INIA | 02-05-2026 07:45 | 0,3 | 90,1 | 0 | 1,4 | 247 | 5 | 1009 |
| 31 | Tamelaike INIA | 02-05-2026 07:30 | 0,3 | 89 | 0 | 2,5 | 248 | 0 | 1009 |
| 30 | Tamelaike INIA | 02-05-2026 07:15 | 0,6 | 89,2 | 0 | 3,8 | 248 | 0 | 1009 |
| 29 | Tamelaike INIA | 02-05-2026 07:00 | 0,5 | 89,2 | 0 | 4,6 | 248 | 0 | 1009 |
| 28 | Tamelaike INIA | 02-05-2026 06:45 | 0,5 | 85,6 | 0 | 4 | 253 | 0 | 1011 |
| 27 | Tamelaike INIA | 02-05-2026 06:30 | 0,6 | 88,3 | 0 | 2,8 | 254 | 0 | 1010 |
| 26 | Tamelaike INIA | 02-05-2026 06:15 | 0,6 | 83,7 | 0 | 0,5 | 268 | 0 | 1010 |
| 25 | Tamelaike INIA | 02-05-2026 06:00 | 0,9 | 85,5 | 0 | 0 | 145 | 0 | 1010 |
| 24 | Tamelaike INIA | 02-05-2026 05:45 | 1 | 84,2 | 0 | 0,6 | 29 | 0 | 1010 |
| 23 | Tamelaike INIA | 02-05-2026 05:30 | 1,1 | 80,1 | 0 | 3,1 | 252 | 0 | 1012 |
| 22 | Tamelaike INIA | 02-05-2026 05:15 | 0,4 | 85 | 0 | 1,3 | 264 | 0 | 1011 |
| 21 | Tamelaike INIA | 02-05-2026 05:00 | 0,9 | 87,8 | 0 | 0 | 0 | 0 | 1010 |
| 20 | Tamelaike INIA | 02-05-2026 04:45 | 1,1 | 84,7 | 0 | 2,3 | 270 | 0 | 1010 |
| 19 | Tamelaike INIA | 02-05-2026 04:30 | 1,3 | 84,2 | 0 | 4,7 | 258 | 0 | 1010 |
| 18 | Tamelaike INIA | 02-05-2026 04:15 | 1,3 | 83,4 | 0 | 5,6 | 262 | 0 | 1010 |
| 17 | Tamelaike INIA | 02-05-2026 04:00 | 1,1 | 84,7 | 0 | 5,2 | 266 | 0 | 1010 |
| 16 | Tamelaike INIA | 02-05-2026 03:45 | 1,3 | 87,4 | 0 | 5,5 | 263 | 0 | 1010 |
| 15 | Tamelaike INIA | 02-05-2026 03:30 | 1,2 | 88,5 | 0 | 5,1 | 266 | 0 | 1010 |
| 14 | Tamelaike INIA | 02-05-2026 03:15 | 1 | 89,8 | 0 | 5,1 | 263 | 0 | 1011 |
| 13 | Tamelaike INIA | 02-05-2026 03:00 | 1 | 88,2 | 0 | 1,9 | 242 | 0 | 1013 |
| 12 | Tamelaike INIA | 02-05-2026 02:45 | 0,9 | 91,7 | 0 | 1,9 | 258 | 0 | 1011 |
| 11 | Tamelaike INIA | 02-05-2026 02:30 | 1,1 | 89 | 0 | 2,6 | 255 | 0 | 1012 |
| 10 | Tamelaike INIA | 02-05-2026 02:15 | 1,1 | 90,7 | 0 | 3,4 | 267 | 0 | 1012 |
| 9 | Tamelaike INIA | 02-05-2026 02:00 | 1,2 | 89,2 | 0 | 4 | 265 | 0 | 1011 |
| 8 | Tamelaike INIA | 02-05-2026 01:45 | 1,2 | 89 | 0 | 3,5 | 267 | 0 | 1029 |
| 7 | Tamelaike INIA | 02-05-2026 01:30 | 1,7 | 87,9 | 0 | 2,9 | 286 | 0 | 1012 |
| 6 | Tamelaike INIA | 02-05-2026 01:15 | 2 | 83,4 | 0 | 4,9 | 267 | 0 | 1012 |
| 5 | Tamelaike INIA | 02-05-2026 01:00 | 2,2 | 83,9 | 0 | 5 | 272 | 0 | 1011 |
| 4 | Tamelaike INIA | 02-05-2026 00:45 | 2,3 | 81,8 | 0 | 5,8 | 273 | 0 | 1010 |
| 3 | Tamelaike INIA | 02-05-2026 00:30 | 2,2 | 80,9 | 0 | 5,8 | 272 | 0 | 1012 |
| 2 | Tamelaike INIA | 02-05-2026 00:15 | 2,1 | 80,5 | 0 | 5,5 | 268 | 0 | 1014 |
| 1 | Tamelaike INIA | 02-05-2026 00:00 | 2 | 80,7 | 0 | 5 | 265 | 0 | 1012 |